Weather History for KHZY - March, 2013

Change the Weather History Date:

Saturday, March 16, 2013

  Actual Average (KYNG) Record (KYNG)
Temperature  
Mean Temperature 29 °F 37 °F  
Max Temperature 32 °F 46 °F 76 °F (1945)
Min Temperature 26 °F 28 °F 8 °F (1992)
Degree Days  
Heating Degree Days 36 28  
Month to date heating degree days 497  
Since 1 July heating degree days 5145  
Cooling Degree Days 0 0  
Month to date cooling degree days 0  
Year to date cooling degree days 0  
Moisture  
Dew Point 25 °F    
Average Humidity 84    
Maximum Humidity 93    
Minimum Humidity 69    
Precipitation  
Precipitation 0.28 in 0.09 in - ()
Month to date precipitation 1.41  
Year to date precipitation 6.11  
Snow  
Snow 0.00 in 0.30 in - ()
Month to date snowfall 6.5  
Since 1 July snowfall 55.3  
Snow Depth -    
Sea Level Pressure  
Sea Level Pressure 29.81 in    
Wind  
Wind Speed 4 mph (NE)    
Max Wind Speed 13 mph    
Max Gust Speed 21 mph    
Visibility 4 miles    
Events Fog , Snow    
T = Trace of Precipitation, MM = Missing Value Source: NWS Daily Summary

Daily Weather History Graph

Daily Weather History Graph

Search for Another Location

Airport or City:

Trip Planner

Search our weather history database for the weather conditions in past years. The results will help you decide how hot, cold, wet, or windy it might be!

Date:

Astronomy

Mar. 16, 2013 Rise Set
Actual Time 7:32 AM EDT 7:30 PM EDT
Civil Twilight 7:04 AM EDT 7:58 PM EDT
Nautical Twilight 6:32 AM EDT 8:30 PM EDT
Astronomical Twilight 5:59 AM EDT 9:03 PM EDT
Moon 9:56 AM EDT (3/16) No Moon Set
Length of Visible Light 12h 53m
Length of Day
11h 58m
Waxing Crescent, 23% of the Moon is Illuminated
Mar 16
Waxing Crescent
Mar 19
First Quarter
Mar 27
Full
Apr 3
Last Quarter
Apr 10
New

Hourly Weather History & Observations

Time (EDT) Temp. Windchill Dew Point Humidity Pressure Visibility Wind Dir Wind Speed Gust Speed Precip Events Conditions
12:38 AM 32.0 °F - 28.4 °F 87% 29.86 in 1.2 mi Calm Calm - 0.01 in Snow Light Snow
12:53 AM 32.0 °F - 28.9 °F 88% 29.88 in 1.2 mi Calm Calm - 0.01 in Snow Light Snow
1:53 AM 32.0 °F - 28.9 °F 88% 29.86 in 1.5 mi Calm Calm - 0.00 in Snow Light Snow
2:05 AM 30.2 °F 26.7 °F 28.4 °F 93% 29.83 in 1.0 mi ESE 3.5 mph - 0.01 in Snow Light Snow
2:42 AM 32.0 °F 27.5 °F 28.4 °F 87% 29.82 in 1.2 mi East 4.6 mph - 0.01 in Snow Light Snow
2:53 AM 32.0 °F 27.5 °F 28.9 °F 88% 29.84 in 1.8 mi East 4.6 mph - 0.01 in Snow Light Snow
3:04 AM 32.0 °F 28.7 °F 28.4 °F 87% 29.82 in 2.0 mi East 3.5 mph - 0.00 in Snow Light Snow
3:32 AM 32.0 °F 28.7 °F 28.4 °F 87% 29.80 in 2.0 mi East 3.5 mph - 0.00 in Snow Light Snow
3:40 AM 32.0 °F - 28.4 °F 87% 29.80 in 1.5 mi Calm Calm - 0.01 in Snow Light Snow
3:53 AM 32.0 °F - 28.9 °F 88% 29.82 in 1.5 mi Calm Calm - 0.01 in Snow Light Snow
4:15 AM 32.0 °F 28.7 °F 28.4 °F 87% 29.79 in 1.2 mi ENE 3.5 mph - 0.00 in Snow Light Snow
4:48 AM 28.4 °F 22.2 °F 26.6 °F 93% 29.79 in 1.8 mi NE 5.8 mph - 0.01 in Snow Light Snow
4:53 AM 28.9 °F 22.8 °F 25.0 °F 85% 29.81 in 2.0 mi ENE 5.8 mph - 0.01 in Snow Light Snow
5:15 AM 28.4 °F 23.3 °F 24.8 °F 86% 29.77 in 3.0 mi NE 4.6 mph - 0.00 in Snow Light Snow
5:53 AM 28.9 °F 23.9 °F 25.0 °F 85% 29.80 in 8.0 mi ENE 4.6 mph - 0.00 in   Overcast
6:09 AM 28.4 °F 23.3 °F 24.8 °F 86% 29.78 in 4.0 mi NE 4.6 mph - 0.00 in Snow Light Snow
6:21 AM 28.4 °F 22.2 °F 24.8 °F 86% 29.77 in 1.5 mi ENE 5.8 mph - 0.01 in Snow Light Snow
6:49 AM 28.4 °F 22.2 °F 24.8 °F 86% 29.78 in 1.0 mi NE 5.8 mph - 0.03 in Snow Light Snow
6:53 AM 28.0 °F 21.7 °F 24.1 °F 85% 29.81 in 1.2 mi NE 5.8 mph - 0.03 in Snow Light Snow
7:25 AM 26.6 °F 19.1 °F 23.0 °F 86% 29.77 in 2.0 mi ENE 6.9 mph - 0.01 in Snow Light Snow
7:42 AM 26.6 °F 20.0 °F 23.0 °F 86% 29.77 in 3.0 mi ENE 5.8 mph - 0.01 in Snow Light Snow
7:51 AM 26.6 °F 20.0 °F 23.0 °F 86% 29.77 in 4.0 mi East 5.8 mph - 0.01 in Snow Light Snow
7:53 AM 27.0 °F 21.6 °F 23.0 °F 85% 29.80 in 3.0 mi East 4.6 mph - 0.01 in Snow Light Snow
7:58 AM 28.4 °F 23.3 °F 23.0 °F 80% 29.77 in 1.8 mi ENE 4.6 mph - 0.00 in Snow Light Snow
8:08 AM 28.4 °F 23.3 °F 24.8 °F 86% 29.77 in 1.0 mi ENE 4.6 mph - 0.01 in Snow Light Snow
8:15 AM 28.4 °F 22.2 °F 24.8 °F 86% 29.76 in 0.2 mi East 5.8 mph - 0.02 in Fog , Snow Heavy Snow
8:22 AM 28.4 °F 22.2 °F 24.8 °F 86% 29.76 in 0.2 mi ENE 5.8 mph - 0.03 in Fog , Snow Snow
8:33 AM 28.4 °F 21.2 °F 24.8 °F 86% 29.76 in 0.5 mi ENE 6.9 mph - 0.04 in Fog , Snow Light Snow
8:43 AM 28.4 °F 22.2 °F 24.8 °F 86% 29.75 in 0.8 mi East 5.8 mph - 0.04 in Snow Light Snow
8:49 AM 28.4 °F 22.2 °F 24.8 °F 86% 29.75 in 1.0 mi ENE 5.8 mph - 0.05 in Snow Light Snow
8:53 AM 28.0 °F 22.8 °F 24.1 °F 85% 29.78 in 1.2 mi ENE 4.6 mph - 0.05 in Snow Light Snow
9:08 AM 28.4 °F 22.2 °F 24.8 °F 86% 29.75 in 0.8 mi East 5.8 mph - 0.01 in Snow Light Snow
9:26 AM 28.4 °F 21.2 °F 24.8 °F 86% 29.74 in 0.2 mi East 6.9 mph - 0.03 in Fog , Snow Heavy Snow
9:53 AM 28.9 °F 25.2 °F 25.0 °F 85% 29.78 in 0.2 mi NE 3.5 mph - 0.07 in Fog , Snow Heavy Snow
10:07 AM 28.4 °F 23.3 °F 24.8 °F 86% 29.75 in 0.5 mi NE 4.6 mph - 0.01 in Fog , Snow Snow
10:15 AM 28.4 °F 24.6 °F 24.8 °F 86% 29.75 in 0.2 mi ENE 3.5 mph - 0.03 in Fog , Snow Heavy Snow
10:39 AM 28.4 °F 23.3 °F 26.6 °F 93% 29.74 in 1.2 mi ENE 4.6 mph - 0.05 in Snow Light Snow
10:42 AM 28.4 °F 22.2 °F 24.8 °F 86% 29.73 in 2.0 mi ENE 5.8 mph - 0.05 in Snow Light Snow
10:53 AM 30.0 °F 24.1 °F 26.1 °F 85% 29.76 in 4.0 mi ENE 5.8 mph - 0.05 in Snow Light Snow
11:03 AM 30.2 °F 25.4 °F 26.6 °F 86% 29.73 in 1.8 mi ENE 4.6 mph - 0.00 in Snow Light Snow
11:10 AM 30.2 °F 23.4 °F 26.6 °F 86% 29.73 in 0.8 mi ENE 6.9 mph - 0.00 in Snow Light Snow
11:19 AM 30.2 °F 25.4 °F 26.6 °F 86% 29.73 in 0.5 mi NE 4.6 mph - 0.01 in Fog , Snow Snow
11:28 AM 30.2 °F 25.4 °F 26.6 °F 86% 29.73 in 0.5 mi NE 4.6 mph - 0.02 in Fog , Snow Snow
11:40 AM 30.2 °F 24.3 °F 26.6 °F 86% 29.73 in 1.2 mi ENE 5.8 mph - 0.02 in Snow Light Snow
11:53 AM 30.0 °F 23.2 °F 26.1 °F 85% 29.75 in 2.0 mi ENE 6.9 mph - 0.02 in Snow Light Snow
12:03 PM 30.2 °F 24.3 °F 26.6 °F 86% 29.72 in 3.0 mi NE 5.8 mph - 0.00 in Snow Light Snow
12:13 PM 30.2 °F 25.4 °F 26.6 °F 86% 29.72 in 2.0 mi NE 4.6 mph - 0.00 in Snow Light Snow
12:20 PM 30.2 °F 22.6 °F 26.6 °F 86% 29.71 in 1.5 mi NE 8.1 mph - 0.01 in Snow Light Snow
12:30 PM 30.2 °F 23.4 °F 26.6 °F 86% 29.71 in 3.0 mi NE 6.9 mph - 0.01 in Snow Light Snow
12:53 PM 30.0 °F 22.4 °F 26.1 °F 85% 29.74 in 5.0 mi NE 8.1 mph - 0.01 in Snow Light Snow
1:53 PM 28.9 °F 19.8 °F 25.0 °F 85% 29.76 in 6.0 mi NNE 10.4 mph 16.1 mph 0.00 in   Overcast
2:53 PM 28.9 °F 18.6 °F 24.1 °F 82% 29.80 in 5.0 mi NNE 12.7 mph 20.7 mph 0.00 in   Haze
3:53 PM 28.9 °F 21.1 °F 23.0 °F 78% 29.83 in 10.0 mi NE 8.1 mph 20.7 mph N/A   Overcast
4:53 PM 28.9 °F 21.1 °F 23.0 °F 78% 29.86 in 10.0 mi NNE 8.1 mph - N/A   Overcast
5:45 PM 30.2 °F 25.4 °F 21.2 °F 69% 29.86 in 10.0 mi NNE 4.6 mph - N/A   Overcast
5:53 PM 30.0 °F 25.2 °F 21.9 °F 72% 29.89 in 10.0 mi NNE 4.6 mph - N/A   Overcast
6:07 PM 28.4 °F 22.2 °F 21.2 °F 74% 29.86 in 10.0 mi NNE 5.8 mph - N/A   Overcast
6:34 PM 28.4 °F 22.2 °F 21.2 °F 74% 29.89 in 10.0 mi North 5.8 mph - N/A   Overcast
6:53 PM 28.9 °F 22.8 °F 21.0 °F 72% 29.93 in 10.0 mi North 5.8 mph - N/A   Overcast
7:06 PM 28.4 °F 22.2 °F 19.4 °F 69% 29.90 in 10.0 mi NNE 5.8 mph - N/A   Overcast
7:25 PM 28.4 °F 20.4 °F 21.2 °F 74% 29.92 in 10.0 mi NNE 8.1 mph - N/A   Overcast
7:53 PM 28.0 °F 21.7 °F 19.9 °F 72% 29.96 in 10.0 mi NNE 5.8 mph - N/A   Overcast
8:53 PM 28.0 °F 21.7 °F 21.0 °F 75% 30.00 in 10.0 mi NNE 5.8 mph - N/A   Overcast
9:53 PM 27.0 °F - 19.9 °F 75% 30.01 in 10.0 mi Calm Calm - N/A   Overcast
10:53 PM 27.0 °F - 19.9 °F 75% 30.02 in 10.0 mi Calm Calm - N/A   Overcast
11:53 PM 26.1 °F - 19.9 °F 78% 30.04 in 10.0 mi Calm Calm - N/A   Overcast